Regional Weather Roundup
Issued by NWS Huntsville, AL

Home | Current Version | Previous Version | Text Only | Print | Product List | Glossary On
Versions: 1 2 3 4 5 6 7 8 9 10 11 12 13 14 15 16 17 18 19 20 21 22 23 24 25 26 27 28 29 30 31 32 33 34 35 36 37 38 39 40 41 42 43 44 45 46 47 48 49 50
000
ASUS44 KHUN 011410
RWRHUN

WEATHER ROUNDUP FOR THE TENNESSEE VALLEY
NATIONAL WEATHER SERVICE HUNTSVILLE AL
900 AM CDT WED APR 01 2015

ALZ001>004-011500-
NORTHWEST ALABAMA

CITY           SKY/WX    TMP DP  RH WIND       PRES   REMARKS
BANKHEAD NF      N/A     63  59  86 E5          N/A
SHOALS AIRPORT NOT AVBL
$$

ALZ005>007-016-011500-
NORTH CENTRAL ALABAMA

CITY           SKY/WX    TMP DP  RH WIND       PRES   REMARKS
DECATUR AP     SUNNY     58  55  90 CALM      30.08R
HUNTSVILLE AP  MOSUNNY   57  55  93 CALM      30.07R
HUN NWS/UAH      N/A     62  50  64 NE3         N/A
MERIDIANVILLE  SUNNY     59  45  58 N6        30.08R
REDSTONE ARSN  SUNNY     60  53  79 NE6       30.06R
VINEMONT AP    CLOUDY    56  55  99 N3        30.10R
$$

ALZ008>010-011500-
NORTHEAST ALABAMA

CITY           SKY/WX    TMP DP  RH WIND       PRES   REMARKS
ALBERTVILLE    CLOUDY    55  55 100 CALM      30.07R FOG
FORT PAYNE     SUNNY     57  54  88 NE3       30.06S
SCOTTSBORO AP  SUNNY     63  52  67 E7        30.09R
SCOTTSBORO HCN   N/A     59 N/A N/A MISG        N/A
VALLEY HEAD      N/A     57 N/A N/A MISG        N/A
$$

TNZ076-096-097-011500-
SOUTHEASTERN MIDDLE TENNESSEE

CITY           SKY/WX    TMP DP  RH WIND       PRES   REMARKS
TULLAHOMA      SUNNY     57  34  41 E8        30.09S
WINCHESTER     SUNNY     59  39  47 N3        30.08S
$$

...SURROUNDING SITES...

CITY           SKY/WX    TMP DP  RH WIND       PRES   REMARKS
ATLANTA        MOSUNNY   62  55  77 N9        30.06R
ANNISTON       CLOUDY    58  56  93 SW7       30.09R
BIRMINGHAM     FOG       56  56 100 CALM      30.10R VSB 1/2
CHATTANOOGA    MOSUNNY   62  36  37 N10       30.09S
CORINTH        CLOUDY    57  55  94 S8        30.06R FOG
DALTON         SUNNY     59  41  51 N3        30.07S
GADSDEN        CLOUDY    57  55  94 W6        30.08R
GOLDEN TRNGL   MOSUNNY   64  55  72 S8        30.05R
HALEYVILLE       N/A     60  58  93 CALM      30.09R
JACKSON TN     SUNNY     61  43  51 VRB5      30.05S
MEMPHIS        CLOUDY    63  57  82 E8        30.03R
MURFREESBORO   FAIR      58  38  47 E5        30.09S
NASHVILLE      PTSUNNY   60  34  37 E7        30.10S
OXFORD MS      PTSUNNY   59  54  82 SE3       30.06R
ROME           SUNNY     65  49  56 N8        30.05S
SAVANNAH       SUNNY     59  55  88 E6        30.05F
TUPELO         MOSUNNY   61  58  90 SE3       30.06R
TUSCALOOSA     SUNNY     63  59  87 CALM      30.08R
$$

...GULF COAST WEATHER...

CITY           SKY/WX    TMP DP  RH WIND       PRES   REMARKS
GULFPORT       SUNNY     71  65  81 NE5       30.10R
PASCAGOULA     SUNNY     69  64  84 CALM      30.11S
MOBILE         MOSUNNY   69  64  84 VRB3      30.12S
GULF SHORES    MOSUNNY   70  65  83 N3        30.12S
PENSACOLA      PTSUNNY   72  64  76 NW7       30.11S
DESTIN         SUNNY     73  64  73 W5        30.11F
PANAMA CITY    MOSUNNY   73  67  82 W8        30.11S
APPALACHICOLA  MOSUNNY   78  66  66 NW12      30.11S
$$



USA.gov is the U.S. government's official web portal to all federal, state and local government web resources and services.